Weather History for YBMK - November, 2013

Change the Weather History Date:

Monday, November 11, 2013

  Actual Average Record
Temperature  
Mean Temperature 75 °F -  
Max Temperature 85 °F - - ()
Min Temperature 65 °F - - ()
Cooling Degree Days 10    
Growing Degree Days 25 (Base 50)    
Moisture  
Dew Point 66 °F    
Average Humidity 70    
Maximum Humidity 94    
Minimum Humidity 47    
Precipitation  
Precipitation 0.00 in - - ()
Sea Level Pressure  
Sea Level Pressure 29.88 in    
Wind  
Wind Speed 7 mph ()    
Max Wind Speed 16 mph    
Max Gust Speed -    
Visibility 6.9 miles    
Events      
T = Trace of Precipitation, MM = Missing Value Source: Averaged Metar Reports

Daily Weather History Graph

Daily Weather History Graph

Search for Another Location

Airport or City:

Trip Planner

Search our weather history database for the weather conditions in past years. The results will help you decide how hot, cold, wet, or windy it might be!

Date:

Astronomy

Nov. 11, 2013 Rise Set
Actual Time 5:15 AM AEST 6:18 PM AEST
Civil Twilight 4:52 AM AEST 6:42 PM AEST
Nautical Twilight 4:24 AM AEST 7:10 PM AEST
Astronomical Twilight 3:55 AM AEST 7:39 PM AEST
Moon 12:33 PM AEST (11/11) 12:31 AM AEST (11/11)
Length of Visible Light 13h 50m
Length of Day
13h 03m
First Quarter, 59% of the Moon is Illuminated
Nov 11
First Quarter
Nov 18
Full
Nov 26
Last Quarter
Dec 3
New
Dec 10
First Quarter

Hourly Weather History & Observations

Time (AEST) Temp. Heat Index Dew Point Humidity Pressure Visibility Wind Dir Wind Speed Gust Speed Precip Events Conditions
12:00 AM 74 °F - 62 °F 58% 29.88 in - North 6.9 mph - -  
12:00 AM 69.8 °F - 62.6 °F 78% 29.86 in 6.2 mi NW 5.8 mph - N/A   Mostly Cloudy
1:00 AM 73 °F - 63 °F 64% 29.87 in - North 4.6 mph - -  
1:00 AM 64.4 °F - 60.8 °F 88% 29.86 in 6.2 mi WSW 4.6 mph - N/A   Unknown
2:00 AM 64.4 °F - 60.8 °F 88% 29.86 in 6.2 mi SW 5.8 mph - N/A   Unknown
3:00 AM 67 °F - 63 °F 81% 29.86 in - SW 6.9 mph - -  
3:00 AM 64.4 °F - 62.6 °F 94% 29.86 in 6.2 mi SW 5.8 mph - N/A   Unknown
4:00 AM 66 °F - 63 °F 85% 29.87 in - SW 6.9 mph - -  
4:00 AM 64.4 °F - 60.8 °F 88% 29.86 in 6.2 mi WSW 5.8 mph - N/A   Unknown
5:00 AM 66.2 °F - 62.6 °F 88% 29.86 in 6.2 mi WSW 4.6 mph - N/A   Unknown
6:00 AM 67 °F - 64 °F 87% 29.90 in 9 mi SW 8.1 mph - -   Haze
6:00 AM 66.2 °F - 64.4 °F 94% 29.89 in 6.2 mi West 6.9 mph - N/A   Unknown
7:00 AM 72 °F - 64 °F 69% 29.92 in - SW 6.9 mph - -  
7:00 AM 71.6 °F - 64.4 °F 78% 29.92 in 6.2 mi WSW 6.9 mph - N/A   Unknown
8:00 AM 78.8 °F - 66.2 °F 65% 29.92 in 6.2 mi SSW 5.8 mph - N/A   Unknown
9:00 AM 80 °F - 67 °F 55% 29.94 in 11 mi SE 5.8 mph - -   Haze
9:00 AM 82.4 °F 85.4 °F 68.0 °F 62% 29.92 in 6.2 mi ESE 8.1 mph - N/A   Scattered Clouds
10:00 AM 80 °F - 68 °F 59% 29.93 in - ESE 6.9 mph - -  
10:00 AM 80.6 °F 83.2 °F 68.0 °F 65% 29.92 in 6.2 mi ESE 11.5 mph - N/A   Unknown
11:00 AM 82.4 °F 86.3 °F 69.8 °F 66% 29.92 in 6.2 mi East 13.8 mph - N/A   Unknown
12:00 PM 84 °F - 69 °F 51% 29.91 in 12 mi ENE 9.2 mph - -   Haze
12:00 PM 84.2 °F 87.3 °F 68.0 °F 58% 29.89 in 6.2 mi ENE 15.0 mph - N/A   Unknown
1:00 PM 85 °F - 68 °F 47% 29.88 in - ENE 9.2 mph - -  
1:00 PM 84.2 °F 88.4 °F 69.8 °F 62% 29.86 in 6.2 mi East 16.1 mph - N/A   Scattered Clouds
2:00 PM 84.2 °F 88.4 °F 69.8 °F 62% 29.86 in 6.2 mi ENE 16.1 mph - N/A   Unknown
3:00 PM 83 °F - 67 °F 50% 29.84 in 12 mi NE 8.1 mph - -   Haze
3:00 PM 82.4 °F 85.4 °F 68.0 °F 62% 29.83 in 6.2 mi ENE 16.1 mph - N/A   Unknown
4:00 PM 82 °F - 68 °F 53% 29.84 in - NE 8.1 mph - -  
4:00 PM 82.4 °F 86.3 °F 69.8 °F 66% 29.83 in 6.2 mi ENE 13.8 mph - N/A   Scattered Clouds
5:00 PM 78.8 °F - 68.0 °F 69% 29.83 in 6.2 mi ENE 13.8 mph - N/A   Scattered Clouds
6:00 PM 77 °F - 67 °F 65% 29.86 in - NE 6.9 mph - -  
6:00 PM 78.8 °F - 68.0 °F 69% 29.86 in 6.2 mi ENE 12.7 mph - N/A   Scattered Clouds
7:00 PM 76 °F - 68 °F 69% 29.88 in - NE 8.1 mph - -  
7:00 PM 77.0 °F - 68.0 °F 74% 29.86 in 6.2 mi ENE 13.8 mph - N/A   Scattered Clouds
8:00 PM 77.0 °F - 68.0 °F 74% 29.86 in 6.2 mi ENE 11.5 mph - N/A   Scattered Clouds
9:00 PM 76 °F - 68 °F 69% 29.89 in - NNE 6.9 mph - -  
9:00 PM 77.0 °F - 68.0 °F 74% 29.89 in 6.2 mi NE 9.2 mph - N/A   Scattered Clouds
10:00 PM 76 °F - 68 °F 69% 29.90 in - NNE 6.9 mph - -  
10:00 PM 77.0 °F - 68.0 °F 74% 29.89 in 6.2 mi NE 8.1 mph - N/A   Scattered Clouds
11:00 PM 75.2 °F - 68.0 °F 78% 29.89 in 6.2 mi NNE 6.9 mph - N/A   Unknown